Regional Weather Roundup
Issued by NWS

Home | Current Version | Previous Version | Graphics & Text | Print | Product List | Glossary On
Versions: 1 2 3 4 5 6 7 8 9 10 11 12 13 14 15 16 17 18 19 20 21 22 23 24 25 26 27 28 29 30 31 32 33 34 35 36 37 38 39 40 41 42 43 44 45 46 47 48 49 50
000
ASUS43 KBIS 182020
RWRND

NORTH DAKOTA REGIONAL WEATHER ROUNDUP
NATIONAL WEATHER SERVICE BISMARCK ND
300 PM CDT FRI APR 18 2014

NOTE: "FAIR" INDICATES FEW OR NO CLOUDS BELOW 12,000 FEET WITH NO
SIGNIFICANT WEATHER AND/OR OBSTRUCTIONS TO VISIBILITY.


NDZ001>003-009>011-017-182100-
NORTHWEST NORTH DAKOTA

CITY           SKY/WX    TMP DP  RH WIND       PRES   REMARKS
WILLISTON      CLOUDY    55  31  39 SE17G31   29.69F
MINOT          MOSUNNY   52  27  38 E32G40    29.84F
MINOT AFB      PTSUNNY   50  30  46 SE29G37   29.85F
$$

NDZ018>021-031>035-040>046-182100-
SOUTHWEST NORTH DAKOTA

CITY           SKY/WX    TMP DP  RH WIND       PRES   REMARKS
BISMARCK       PTSUNNY   59  35  40 SE28G39   29.83F
DICKINSON      CLOUDY    55  33  43 SE26G36   29.69F
GARRISON         N/A     56  32  40 SE28G38   29.79F
HETTINGER ARPT PTSUNNY   58  36  43 SE23G32   29.71F
$$

NDZ004>008-012>016-024-026-027-054-182100-
NORTHEAST NORTH DAKOTA

CITY           SKY/WX    TMP DP  RH WIND       PRES   REMARKS
GRAND FORKS    PTSUNNY   52  26  36 SE26G32   30.13F
GRND FRKS AFB  PTSUNNY   53  27  36 SE23G32   30.12F
DEVILS LAKE    CLOUDY    46  27  46 SE29G37   29.99F
$$

NDZ022-023-025-028>030-036>039-047>053-182100-
SOUTHEAST NORTH DAKOTA

CITY           SKY/WX    TMP DP  RH WIND       PRES   REMARKS
FARGO          PTSUNNY   53  29  39 SE22G35   30.11F
JAMESTOWN      MOSUNNY   53  31  42 SE29G43   29.98F
$$




USA.gov is the U.S. government's official web portal to all federal, state and local government web resources and services.